Flag for Germany Weather past 2 weeks in Bad Salzuflen, North Rhine-Westphalia, Germany

Now
39 °F

Partly cloudy.


Feels Like: 32 °F
Forecast: 35 / 46 °F
Wind: 12 mph from Northwest

Location: Bueckeburg

Current Time: Mar 5, 2015 at 1:58:45 AM

Latest Report: Mar 5, 2015 at 1:20 AM


Visibility: N/A

Pressure: 30.42 "Hg

Humidity: 81%

Dew point: 34 °F

Location of Bad SalzuflenLocation

Historic Weather in Bad Salzuflen — Graph

°F

Bad Salzuflen temperature yesterday

Maximum temperature yesterday: 43 °F (at 2:20 PM)
Minimum temperature yesterday: 36 °F (at 3:20 AM)
Average temperature yesterday: 39 °F

Past Weeks' High & Low Weather Summary

 TemperatureHumidityPressure
High50 °F (Mar 1, 1:20 PM)100% (Feb 18, 12:20 AM)30.74 "Hg (Feb 18, 12:20 AM)
Low30 °F (Feb 28, 4:20 AM)46% (Feb 28, 3:20 PM)29.30 "Hg (Feb 21, 6:20 AM)
Average40 °F78%29.88 "Hg
* Reported Feb 18 12:20 AM — Mar 5 12:20 AM, Bad Salzuflen, Weather by CustomWeather, © 2015

Note: Actual official high and low records may vary slightly from our data, if they occured in-between our weather recording intervals... More about our weather records

Advertising

Bad Salzuflen weather history for previous 24 hours

 ConditionsComfort  
Time TempWeatherWind HumidityBarometerVisibility
12:20 AM
Thu, Mar 5
39 °FPassing clouds.14 mph81%30.36 "HgN/A
12:00 AM39 °FPartly cloudy.10 mph87%30.36 "HgN/A
11:20 PM
Wed, Mar 4
39 °FPassing clouds.15 mph87%30.33 "HgN/A
10:20 PM37 °FRain showers. Partly cloudy.12 mph93%30.27 "Hg4 mi
9:20 PM36 °FPartly cloudy.9 mph93%30.24 "HgN/A
8:46 PM37 °FPartly cloudy.20 mph87%30.24 "Hg5 mi
8:20 PM39 °FSprinkles. Passing clouds.15 mph87%30.24 "Hg6 mi
7:20 PM39 °FSprinkles. Passing clouds.14 mph87%30.21 "HgN/A
6:20 PM39 °FPassing clouds.16 mph87%30.21 "HgN/A
5:58 PM41 °FRain showers. Partly sunny.14 mph76%30.18 "Hg4 mi
5:20 PM41 °FBroken clouds.13 mph76%30.18 "HgN/A
4:20 PM43 °FBroken clouds.21 mph71%30.15 "HgN/A
3:50 PM41 °FSnow flurries. Broken clouds.13 mph76%30.18 "HgN/A
3:20 PM43 °FSprinkles. Broken clouds.15 mph71%30.15 "HgN/A
2:20 PM43 °FPartly sunny.17 mph71%30.15 "HgN/A
1:20 PM41 °FBroken clouds.14 mph76%30.15 "HgN/A
12:20 PM41 °FBroken clouds.14 mph76%30.15 "HgN/A
11:20 AM39 °FBroken clouds.16 mph81%30.12 "HgN/A
10:20 AM39 °FPartly sunny.16 mph81%30.12 "HgN/A
9:20 AM37 °FScattered clouds.17 mph87%30.09 "HgN/A
8:20 AM37 °FPartly sunny.17 mph81%30.09 "HgN/A
7:20 AM36 °FPartly sunny.16 mph87%30.09 "Hg6 mi
6:20 AM36 °FPassing clouds.15 mph87%30.07 "Hg6 mi
5:20 AM36 °FPassing clouds.14 mph87%30.07 "HgN/A
4:20 AM36 °FPassing clouds.10 mph81%30.04 "HgN/A
3:20 AM36 °FPassing clouds.10 mph81%30.04 "HgN/A
2:20 AM37 °FPartly cloudy.15 mph81%30.04 "HgN/A
1:20 AM37 °FPartly cloudy.12 mph87%30.01 "HgN/A
Weather by CustomWeather, © 2015

See weather overviewHow to use our weather pages